Zurück zum Katalog

STARLINK-5615

AktivKommunikationVLEO
NORAD 55425·PAYLOAD·🇺🇸 United States

Gestartet Jan 31, 2023 von Vandenberg Space Force Base

Loading…

Nächste Überflüge (nächste 24 Stunden)

TLE

AktuellSource: CelesTrak SupGP

Epoche: Sep 14, 2026, 21:22 UTC

1 55425C 23014AL  26257.89076389 -.00035066  00000+0 -29397-2 0  2573
2 55425  70.0007 327.4514 0003290 271.9541  22.0267 14.98334890    15

Verfolge STARLINK-5615 in Echtzeit mit AllMySat

Download on the App Store